Time,TemperatureF,DewpointF,PressureIn,WindDirection,WindDirectionDegrees,WindSpeedMPH,WindSpeedGustMPH,Humidity,HourlyPrecipIn,Conditions,Clouds,dailyrainin,SoftwareType,DateUTC
2013-10-30 00:00:00,44.0,40.1,30.27,WNW,284,0.0,0.0,86,0.00,,,0.00,Wunderground v.1.13,2013-10-30 04:00:00,
2013-10-30 00:05:00,43.9,40.0,30.28,WNW,284,0.0,0.0,86,0.00,,,0.00,Wunderground v.1.13,2013-10-30 04:05:00,
2013-10-30 00:10:00,43.8,39.9,30.27,WNW,284,0.0,0.0,86,0.00,,,0.00,Wunderground v.1.13,2013-10-30 04:10:00,
2013-10-30 00:15:00,43.7,39.8,30.27,WNW,284,0.0,0.0,86,0.00,,,0.00,Wunderground v.1.13,2013-10-30 04:15:00,
2013-10-30 00:20:00,43.6,39.7,30.27,WNW,284,0.0,0.0,86,0.00,,,0.00,Wunderground v.1.13,2013-10-30 04:20:00,
2013-10-30 00:25:00,43.4,39.5,30.26,WNW,284,0.0,0.0,86,0.00,,,0.00,Wunderground v.1.13,2013-10-30 04:25:00,
2013-10-30 00:35:00,43.2,39.3,30.25,WNW,284,0.0,0.0,86,0.00,,,0.00,Wunderground v.1.13,2013-10-30 04:35:00,
2013-10-30 00:45:00,43.1,39.2,30.25,WNW,284,0.0,0.0,86,0.00,,,0.00,Wunderground v.1.13,2013-10-30 04:45:00,
2013-10-30 00:50:00,43.1,39.2,30.25,WNW,284,0.0,0.0,86,0.00,,,0.00,Wunderground v.1.13,2013-10-30 04:50:00,
2013-10-30 01:00:00,42.9,39.0,30.24,WNW,284,0.0,0.0,86,0.00,,,0.00,Wunderground v.1.13,2013-10-30 05:00:00,
2013-10-30 01:05:00,42.8,39.2,30.24,WNW,284,0.0,0.0,87,0.00,,,0.00,Wunderground v.1.13,2013-10-30 05:05:00,
2013-10-30 01:15:00,42.6,39.0,30.24,WNW,284,0.0,0.0,87,0.00,,,0.00,Wunderground v.1.13,2013-10-30 05:15:00,
2013-10-30 01:25:00,42.5,38.9,30.23,WNW,284,0.0,0.0,87,0.00,,,0.00,Wunderground v.1.13,2013-10-30 05:25:00,
2013-10-30 01:35:00,42.4,38.8,30.23,WNW,284,0.0,0.0,87,0.00,,,0.00,Wunderground v.1.13,2013-10-30 05:35:00,
2013-10-30 01:40:00,42.4,38.8,30.23,WNW,284,0.0,0.0,87,0.00,,,0.00,Wunderground v.1.13,2013-10-30 05:40:00,
2013-10-30 01:50:00,42.4,39.1,30.23,WNW,284,0.0,0.0,88,0.00,,,0.00,Wunderground v.1.13,2013-10-30 05:50:00,
2013-10-30 01:55:00,42.4,39.1,30.23,WNW,284,0.0,0.0,88,0.00,,,0.00,Wunderground v.1.13,2013-10-30 05:55:00,
2013-10-30 02:00:00,42.4,39.1,30.23,WNW,284,0.0,0.0,88,0.00,,,0.00,Wunderground v.1.13,2013-10-30 06:00:00,
2013-10-30 02:05:00,42.3,39.0,30.23,WNW,284,0.0,0.0,88,0.00,,,0.00,Wunderground v.1.13,2013-10-30 06:05:00,
2013-10-30 02:15:00,42.2,38.9,30.22,WNW,284,0.0,0.0,88,0.00,,,0.00,Wunderground v.1.13,2013-10-30 06:15:00,
2013-10-30 02:25:00,42.2,38.9,30.23,WNW,284,0.0,0.0,88,0.00,,,0.00,Wunderground v.1.13,2013-10-30 06:25:00,
2013-10-30 02:30:00,42.2,38.9,30.23,WNW,284,0.0,0.0,88,0.00,,,0.00,Wunderground v.1.13,2013-10-30 06:30:00,
2013-10-30 02:35:00,42.2,38.9,30.23,WNW,284,0.0,0.0,88,0.00,,,0.00,Wunderground v.1.13,2013-10-30 06:35:00,
2013-10-30 02:40:00,42.2,38.9,30.22,WNW,284,0.0,0.0,88,0.00,,,0.00,Wunderground v.1.13,2013-10-30 06:40:00,
2013-10-30 02:45:00,42.3,39.0,30.22,WNW,284,0.0,0.0,88,0.00,,,0.00,Wunderground v.1.13,2013-10-30 06:45:00,
2013-10-30 02:50:00,42.3,39.0,30.22,WNW,284,0.0,0.0,88,0.00,,,0.00,Wunderground v.1.13,2013-10-30 06:50:00,
2013-10-30 02:55:00,42.3,39.0,30.22,WNW,284,0.0,0.0,88,0.00,,,0.00,Wunderground v.1.13,2013-10-30 06:55:00,
2013-10-30 03:05:00,42.2,39.2,30.21,WNW,284,0.0,0.0,89,0.00,,,0.00,Wunderground v.1.13,2013-10-30 07:05:00,
2013-10-30 03:15:00,42.2,39.2,30.21,WNW,284,0.0,0.0,89,0.00,,,0.00,Wunderground v.1.13,2013-10-30 07:15:00,
2013-10-30 03:20:00,42.2,39.2,30.21,WNW,284,0.0,0.0,89,0.00,,,0.00,Wunderground v.1.13,2013-10-30 07:20:00,
2013-10-30 03:30:00,42.2,39.2,30.21,WNW,284,0.0,0.0,89,0.00,,,0.00,Wunderground v.1.13,2013-10-30 07:30:00,
2013-10-30 03:35:00,42.3,39.3,30.21,WNW,284,0.0,0.0,89,0.00,,,0.00,Wunderground v.1.13,2013-10-30 07:35:00,
2013-10-30 03:40:00,42.2,39.2,30.21,WNW,284,0.0,0.0,89,0.00,,,0.00,Wunderground v.1.13,2013-10-30 07:40:00,
2013-10-30 03:45:00,42.2,39.2,30.21,WNW,284,0.0,0.0,89,0.00,,,0.00,Wunderground v.1.13,2013-10-30 07:45:00,
2013-10-30 03:50:00,42.2,39.2,30.20,WNW,284,0.0,0.0,89,0.00,,,0.00,Wunderground v.1.13,2013-10-30 07:50:00,
2013-10-30 03:55:00,42.3,39.3,30.20,WNW,284,0.0,0.0,89,0.00,,,0.00,Wunderground v.1.13,2013-10-30 07:55:00,
2013-10-30 04:05:00,42.2,39.5,30.19,WNW,284,0.0,0.0,90,0.00,,,0.00,Wunderground v.1.13,2013-10-30 08:05:00,
2013-10-30 04:15:00,42.4,39.7,30.18,WNW,284,0.0,0.0,90,0.00,,,0.00,Wunderground v.1.13,2013-10-30 08:15:00,
2013-10-30 04:20:00,42.4,39.7,30.18,WNW,284,0.0,0.0,90,0.00,,,0.00,Wunderground v.1.13,2013-10-30 08:20:00,
2013-10-30 04:25:00,42.5,39.8,30.19,WNW,284,0.0,0.0,90,0.00,,,0.00,Wunderground v.1.13,2013-10-30 08:25:00,
2013-10-30 04:35:00,42.5,39.8,30.19,WNW,284,0.0,0.0,90,0.00,,,0.00,Wunderground v.1.13,2013-10-30 08:35:00,
2013-10-30 04:40:00,42.5,39.8,30.19,WNW,284,0.0,0.0,90,0.00,,,0.00,Wunderground v.1.13,2013-10-30 08:40:00,
2013-10-30 04:45:00,42.6,39.9,30.19,WNW,284,0.0,0.0,90,0.00,,,0.00,Wunderground v.1.13,2013-10-30 08:45:00,
2013-10-30 04:50:00,42.6,39.9,30.19,WNW,284,0.0,0.0,90,0.00,,,0.00,Wunderground v.1.13,2013-10-30 08:50:00,
2013-10-30 04:55:00,42.7,40.0,30.19,WNW,284,0.0,0.0,90,0.00,,,0.00,Wunderground v.1.13,2013-10-30 08:55:00,
2013-10-30 05:00:00,42.7,40.0,30.19,WNW,284,0.0,0.0,90,0.00,,,0.00,Wunderground v.1.13,2013-10-30 09:00:00,
2013-10-30 05:05:00,42.7,40.0,30.19,WNW,284,0.0,0.0,90,0.00,,,0.00,Wunderground v.1.13,2013-10-30 09:05:00,
2013-10-30 05:15:00,42.8,40.1,30.19,WNW,284,0.0,0.0,90,0.00,,,0.00,Wunderground v.1.13,2013-10-30 09:15:00,
2013-10-30 05:20:00,42.8,40.1,30.19,WNW,284,0.0,0.0,90,0.00,,,0.00,Wunderground v.1.13,2013-10-30 09:20:00,
2013-10-30 05:25:00,42.9,40.2,30.19,WNW,284,0.0,0.0,90,0.00,,,0.00,Wunderground v.1.13,2013-10-30 09:25:00,
2013-10-30 05:30:00,42.9,40.2,30.20,WNW,284,0.0,0.0,90,0.00,,,0.00,Wunderground v.1.13,2013-10-30 09:30:00,
2013-10-30 05:35:00,42.9,40.2,30.20,WNW,284,0.0,0.0,90,0.00,,,0.00,Wunderground v.1.13,2013-10-30 09:35:00,
2013-10-30 05:45:00,43.0,40.3,30.20,WNW,284,0.0,0.0,90,0.00,,,0.00,Wunderground v.1.13,2013-10-30 09:45:00,
2013-10-30 05:50:00,43.0,40.3,30.20,WNW,284,0.0,0.0,90,0.00,,,0.00,Wunderground v.1.13,2013-10-30 09:50:00,
2013-10-30 05:55:00,43.1,40.4,30.20,WNW,284,0.0,0.0,90,0.00,,,0.00,Wunderground v.1.13,2013-10-30 09:55:00,
2013-10-30 06:00:00,43.1,40.4,30.20,WNW,284,0.0,0.0,90,0.00,,,0.00,Wunderground v.1.13,2013-10-30 10:00:00,
2013-10-30 06:05:00,43.1,40.4,30.20,WNW,284,0.0,0.0,90,0.00,,,0.00,Wunderground v.1.13,2013-10-30 10:05:00,
2013-10-30 06:15:00,43.1,40.4,30.20,WNW,284,0.0,0.0,90,0.00,,,0.00,Wunderground v.1.13,2013-10-30 10:15:00,
2013-10-30 06:20:00,43.1,40.4,30.20,WNW,284,0.0,0.0,90,0.00,,,0.00,Wunderground v.1.13,2013-10-30 10:20:00,
2013-10-30 06:25:00,43.1,40.1,30.20,WNW,284,0.0,0.0,89,0.00,,,0.00,Wunderground v.1.13,2013-10-30 10:25:00,
2013-10-30 06:30:00,43.1,40.1,30.20,WNW,284,0.0,0.0,89,0.00,,,0.00,Wunderground v.1.13,2013-10-30 10:30:00,
2013-10-30 06:35:00,43.1,40.1,30.20,WNW,284,0.0,0.0,89,0.00,,,0.00,Wunderground v.1.13,2013-10-30 10:35:00,
2013-10-30 06:45:00,43.2,40.2,30.20,WNW,284,0.0,0.0,89,0.00,,,0.00,Wunderground v.1.13,2013-10-30 10:45:00,
2013-10-30 06:50:00,43.2,40.2,30.20,WNW,284,0.0,0.0,89,0.00,,,0.00,Wunderground v.1.13,2013-10-30 10:50:00,
2013-10-30 07:00:00,43.1,40.1,30.21,WNW,284,0.0,0.0,89,0.00,,,0.00,Wunderground v.1.13,2013-10-30 11:00:00,
2013-10-30 07:05:00,43.0,40.0,30.20,WNW,284,0.0,0.0,89,0.00,,,0.00,Wunderground v.1.13,2013-10-30 11:05:00,
2013-10-30 07:15:00,42.8,39.8,30.21,WNW,284,0.0,0.0,89,0.00,,,0.00,Wunderground v.1.13,2013-10-30 11:15:00,
2013-10-30 07:25:00,42.4,39.4,30.21,WNW,284,0.0,0.0,89,0.00,,,0.00,Wunderground v.1.13,2013-10-30 11:25:00,
2013-10-30 07:35:00,42.2,39.2,30.21,WNW,284,0.0,0.0,89,0.00,,,0.00,Wunderground v.1.13,2013-10-30 11:35:00,
2013-10-30 07:40:00,42.1,39.1,30.21,WNW,284,0.0,0.0,89,0.00,,,0.00,Wunderground v.1.13,2013-10-30 11:40:00,
2013-10-30 07:45:00,42.1,39.1,30.21,WNW,284,0.0,0.0,89,0.00,,,0.00,Wunderground v.1.13,2013-10-30 11:45:00,
2013-10-30 07:55:00,42.0,39.0,30.21,WNW,284,0.0,0.0,89,0.00,,,0.00,Wunderground v.1.13,2013-10-30 11:55:00,
2013-10-30 08:05:00,42.0,39.0,30.22,WNW,284,0.0,0.0,89,0.00,,,0.00,Wunderground v.1.13,2013-10-30 12:05:00,
2013-10-30 08:15:00,42.1,39.4,30.22,WNW,284,0.0,0.0,90,0.00,,,0.00,Wunderground v.1.13,2013-10-30 12:15:00,
2013-10-30 08:25:00,42.3,39.6,30.22,WNW,284,0.0,0.0,90,0.00,,,0.00,Wunderground v.1.13,2013-10-30 12:25:00,
2013-10-30 08:30:00,42.4,39.7,30.22,WNW,284,0.0,0.0,90,0.00,,,0.00,Wunderground v.1.13,2013-10-30 12:30:00,
2013-10-30 08:40:00,42.6,40.2,30.22,WNW,284,0.0,0.0,91,0.00,,,0.00,Wunderground v.1.13,2013-10-30 12:40:00,
2013-10-30 08:45:00,42.7,40.3,30.22,WNW,284,0.0,0.0,91,0.00,,,0.00,Wunderground v.1.13,2013-10-30 12:45:00,
2013-10-30 08:55:00,43.1,40.7,30.22,WNW,284,0.0,0.0,91,0.00,,,0.00,Wunderground v.1.13,2013-10-30 12:55:00,
2013-10-30 09:05:00,43.4,40.9,30.22,WNW,284,0.0,0.0,91,0.00,,,0.00,Wunderground v.1.13,2013-10-30 13:05:00,
2013-10-30 09:15:00,43.7,41.2,30.22,WNW,284,0.0,0.0,91,0.00,,,0.00,Wunderground v.1.13,2013-10-30 13:15:00,
2013-10-30 09:20:00,43.8,41.3,30.22,WNW,284,0.0,0.0,91,0.00,,,0.00,Wunderground v.1.13,2013-10-30 13:20:00,
2013-10-30 09:30:00,44.2,41.7,30.23,WNW,284,0.0,0.0,91,0.00,,,0.00,Wunderground v.1.13,2013-10-30 13:30:00,
2013-10-30 09:35:00,44.4,41.7,30.23,WNW,284,0.0,0.0,90,0.00,,,0.00,Wunderground v.1.13,2013-10-30 13:35:00,
2013-10-30 09:45:00,44.7,41.9,30.23,WNW,284,0.0,0.0,90,0.00,,,0.00,Wunderground v.1.13,2013-10-30 13:45:00,
2013-10-30 09:50:00,45.0,42.2,30.23,WNW,284,0.0,0.0,90,0.00,,,0.00,Wunderground v.1.13,2013-10-30 13:50:00,
2013-10-30 10:00:00,45.5,42.2,30.23,WNW,284,0.0,0.0,88,0.00,,,0.00,Wunderground v.1.13,2013-10-30 14:00:00,
2013-10-30 10:05:00,46.1,42.7,30.23,WNW,284,0.0,0.0,88,0.00,,,0.00,Wunderground v.1.13,2013-10-30 14:05:00,
2013-10-30 10:15:00,46.9,42.9,30.23,WNW,284,0.0,0.0,86,0.00,,,0.00,Wunderground v.1.13,2013-10-30 14:15:00,
2013-10-30 10:20:00,47.4,43.1,30.23,WNW,284,0.0,0.0,85,0.00,,,0.00,Wunderground v.1.13,2013-10-30 14:20:00,
2013-10-30 10:25:00,47.7,43.1,30.23,WNW,284,0.0,0.0,84,0.00,,,0.00,Wunderground v.1.13,2013-10-30 14:25:00,
2013-10-30 10:35:00,48.6,43.7,30.23,WNW,284,0.0,0.0,83,0.00,,,0.00,Wunderground v.1.13,2013-10-30 14:35:00,
2013-10-30 10:40:00,49.2,44.3,30.23,WNW,284,0.0,0.0,83,0.00,,,0.00,Wunderground v.1.13,2013-10-30 14:40:00,
2013-10-30 10:50:00,50.3,44.7,30.23,WNW,284,0.0,0.0,81,0.00,,,0.00,Wunderground v.1.13,2013-10-30 14:50:00,
2013-10-30 11:00:00,51.6,45.3,30.23,WNW,284,0.0,0.0,79,0.00,,,0.00,Wunderground v.1.13,2013-10-30 15:00:00,
2013-10-30 11:05:00,52.1,45.4,30.23,WNW,284,0.0,2.0,78,0.00,,,0.00,Wunderground v.1.13,2013-10-30 15:05:00,
2013-10-30 11:15:00,53.0,46.0,30.23,WNW,284,0.0,2.0,77,0.00,,,0.00,Wunderground v.1.13,2013-10-30 15:15:00,
2013-10-30 11:25:00,53.8,45.7,30.23,SSE,148,1.0,1.0,74,0.00,,,0.00,Wunderground v.1.13,2013-10-30 15:25:00,
2013-10-30 11:35:00,55.2,46.7,30.23,SSE,147,0.0,2.0,73,0.00,,,0.00,Wunderground v.1.13,2013-10-30 15:35:00,
2013-10-30 11:45:00,57.1,47.0,30.23,SSE,163,0.0,2.0,69,0.00,,,0.00,Wunderground v.1.13,2013-10-30 15:45:00,
2013-10-30 11:50:00,57.8,47.3,30.23,South,177,0.0,2.0,68,0.00,,,0.00,Wunderground v.1.13,2013-10-30 15:50:00,
2013-10-30 12:00:00,58.7,47.8,30.22,SSE,153,1.0,1.0,67,0.00,,,0.00,Wunderground v.1.13,2013-10-30 16:00:00,
2013-10-30 12:05:00,59.0,48.1,30.22,SSE,155,1.0,5.0,67,0.00,,,0.00,Wunderground v.1.13,2013-10-30 16:05:00,
2013-10-30 12:15:00,59.8,48.4,30.21,SE,130,1.0,5.0,66,0.00,,,0.00,Wunderground v.1.13,2013-10-30 16:15:00,
2013-10-30 12:25:00,60.8,49.4,30.21,SE,140,1.0,1.0,66,0.00,,,0.00,Wunderground v.1.13,2013-10-30 16:25:00,
2013-10-30 12:30:00,60.9,48.6,30.20,SSE,152,1.0,1.0,64,0.00,,,0.00,Wunderground v.1.13,2013-10-30 16:30:00,
2013-10-30 12:40:00,61.1,49.2,30.20,SSE,157,1.0,1.0,65,0.00,,,0.00,Wunderground v.1.13,2013-10-30 16:40:00,
2013-10-30 12:50:00,61.3,49.0,30.19,South,169,1.0,1.0,64,0.00,,,0.00,Wunderground v.1.13,2013-10-30 16:50:00,
2013-10-30 12:55:00,61.6,48.9,30.19,SSE,155,1.0,5.0,63,0.00,,,0.00,Wunderground v.1.13,2013-10-30 16:55:00,
2013-10-30 13:05:00,63.2,50.0,30.18,SW,222,2.0,2.0,62,0.00,,,0.00,Wunderground v.1.13,2013-10-30 17:05:00,
2013-10-30 13:15:00,63.8,51.0,30.18,SE,138,1.0,5.0,63,0.00,,,0.00,Wunderground v.1.13,2013-10-30 17:15:00,
2013-10-30 13:25:00,64.3,51.9,30.17,South,169,2.0,2.0,64,0.00,,,0.00,Wunderground v.1.13,2013-10-30 17:25:00,
2013-10-30 13:35:00,64.0,51.6,30.17,SE,135,1.0,5.0,64,0.00,,,0.00,Wunderground v.1.13,2013-10-30 17:35:00,
2013-10-30 13:40:00,64.2,51.3,30.17,SE,144,1.0,5.0,63,0.00,,,0.00,Wunderground v.1.13,2013-10-30 17:40:00,
2013-10-30 13:45:00,63.8,51.0,30.17,SSE,153,1.0,1.0,63,0.00,,,0.00,Wunderground v.1.13,2013-10-30 17:45:00,
2013-10-30 13:50:00,63.8,51.0,30.17,West,260,1.0,1.0,63,0.00,,,0.00,Wunderground v.1.13,2013-10-30 17:50:00,
2013-10-30 13:55:00,64.0,51.6,30.16,West,261,1.0,1.0,64,0.00,,,0.00,Wunderground v.1.13,2013-10-30 17:55:00,
2013-10-30 14:05:00,64.3,51.0,30.16,SE,142,1.0,3.0,62,0.00,,,0.00,Wunderground v.1.13,2013-10-30 18:05:00,
2013-10-30 14:15:00,64.1,51.7,30.15,WSW,249,1.0,3.0,64,0.00,,,0.00,Wunderground v.1.13,2013-10-30 18:15:00,
2013-10-30 14:25:00,64.0,51.1,30.15,WSW,248,2.0,4.0,63,0.00,,,0.00,Wunderground v.1.13,2013-10-30 18:25:00,
2013-10-30 14:35:00,63.9,51.5,30.15,WSW,244,1.0,1.0,64,0.00,,,0.00,Wunderground v.1.13,2013-10-30 18:35:00,
2013-10-30 14:40:00,64.0,51.6,30.14,WSW,245,1.0,1.0,64,0.00,,,0.00,Wunderground v.1.13,2013-10-30 18:40:00,
2013-10-30 14:50:00,64.0,51.6,30.14,SSW,213,1.0,1.0,64,0.00,,,0.00,Wunderground v.1.13,2013-10-30 18:50:00,
2013-10-30 14:55:00,64.1,51.7,30.14,SSW,211,1.0,1.0,64,0.00,,,0.00,Wunderground v.1.13,2013-10-30 18:55:00,
2013-10-30 15:05:00,63.9,51.9,30.14,West,267,2.0,2.0,65,0.00,,,0.00,Wunderground v.1.13,2013-10-30 19:05:00,
2013-10-30 15:15:00,63.8,51.8,30.13,West,267,1.0,1.0,65,0.00,,,0.00,Wunderground v.1.13,2013-10-30 19:15:00,
2013-10-30 15:20:00,63.9,51.9,30.13,West,267,1.0,1.0,65,0.00,,,0.00,Wunderground v.1.13,2013-10-30 19:20:00,
2013-10-30 15:30:00,64.5,52.9,30.13,West,267,0.0,4.0,66,0.00,,,0.00,Wunderground v.1.13,2013-10-30 19:30:00,
2013-10-30 15:35:00,64.3,52.7,30.13,SSW,213,1.0,4.0,66,0.00,,,0.00,Wunderground v.1.13,2013-10-30 19:35:00,
2013-10-30 15:40:00,64.4,52.4,30.13,SSW,213,1.0,1.0,65,0.00,,,0.00,Wunderground v.1.13,2013-10-30 19:40:00,
2013-10-30 15:50:00,64.7,52.7,30.12,WSW,247,1.0,4.0,65,0.00,,,0.00,Wunderground v.1.13,2013-10-30 19:50:00,
2013-10-30 16:00:00,64.7,53.1,30.12,South,191,1.0,1.0,66,0.00,,,0.00,Wunderground v.1.13,2013-10-30 20:00:00,
2013-10-30 16:10:00,64.5,53.3,30.13,SE,138,1.0,1.0,67,0.00,,,0.00,Wunderground v.1.13,2013-10-30 20:10:00,
2013-10-30 16:15:00,64.5,53.3,30.13,South,172,1.0,4.0,67,0.00,,,0.00,Wunderground v.1.13,2013-10-30 20:15:00,
2013-10-30 16:25:00,64.3,53.1,30.12,SSW,196,2.0,4.0,67,0.00,,,0.00,Wunderground v.1.13,2013-10-30 20:25:00,
2013-10-30 16:35:00,64.3,53.1,30.12,South,186,1.0,1.0,67,0.00,,,0.00,Wunderground v.1.13,2013-10-30 20:35:00,
2013-10-30 16:45:00,64.7,53.5,30.12,South,171,1.0,1.0,67,0.00,,,0.00,Wunderground v.1.13,2013-10-30 20:45:00,
2013-10-30 16:55:00,64.2,53.0,30.12,SSE,162,1.0,1.0,67,0.00,,,0.00,Wunderground v.1.13,2013-10-30 20:55:00,
2013-10-30 17:00:00,63.8,53.0,30.12,SSW,202,1.0,1.0,68,0.00,,,0.00,Wunderground v.1.13,2013-10-30 21:00:00,
2013-10-30 17:05:00,63.7,52.9,30.13,South,169,1.0,1.0,68,0.00,,,0.00,Wunderground v.1.13,2013-10-30 21:05:00,
2013-10-30 17:15:00,63.6,52.8,30.12,SSE,148,1.0,1.0,68,0.00,,,0.00,Wunderground v.1.13,2013-10-30 21:15:00,
2013-10-30 17:25:00,63.6,53.2,30.13,SE,136,0.0,3.0,69,0.00,,,0.00,Wunderground v.1.13,2013-10-30 21:25:00,
2013-10-30 17:30:00,63.5,53.1,30.12,SSE,154,0.0,3.0,69,0.00,,,0.00,Wunderground v.1.13,2013-10-30 21:30:00,
2013-10-30 17:35:00,63.4,53.0,30.12,SSE,160,1.0,1.0,69,0.00,,,0.00,Wunderground v.1.13,2013-10-30 21:35:00,
2013-10-30 17:40:00,63.2,52.9,30.12,South,170,1.0,3.0,69,0.00,,,0.00,Wunderground v.1.13,2013-10-30 21:40:00,
2013-10-30 17:45:00,63.1,53.2,30.12,South,169,0.0,3.0,70,0.00,,,0.00,Wunderground v.1.13,2013-10-30 21:45:00,
2013-10-30 17:50:00,62.9,53.0,30.12,South,169,0.0,3.0,70,0.00,,,0.00,Wunderground v.1.13,2013-10-30 21:50:00,
2013-10-30 17:55:00,62.8,53.3,30.12,South,169,0.0,3.0,71,0.00,,,0.00,Wunderground v.1.13,2013-10-30 21:55:00,
2013-10-30 18:05:00,62.4,52.9,30.13,South,169,0.0,1.0,71,0.00,,,0.00,Wunderground v.1.13,2013-10-30 22:05:00,
2013-10-30 18:15:00,61.8,52.7,30.13,South,169,0.0,1.0,72,0.00,,,0.00,Wunderground v.1.13,2013-10-30 22:15:00,
2013-10-30 18:20:00,61.6,52.9,30.13,South,169,0.0,1.0,73,0.00,,,0.00,Wunderground v.1.13,2013-10-30 22:20:00,
2013-10-30 18:30:00,61.1,52.4,30.13,South,169,0.0,1.0,73,0.00,,,0.00,Wunderground v.1.13,2013-10-30 22:30:00,
2013-10-30 18:40:00,60.2,51.9,30.14,South,169,0.0,1.0,74,0.00,,,0.00,Wunderground v.1.13,2013-10-30 22:40:00,
2013-10-30 18:50:00,59.4,51.8,30.14,South,169,0.0,1.0,76,0.00,,,0.00,Wunderground v.1.13,2013-10-30 22:50:00,
2013-10-30 18:55:00,59.0,51.8,30.14,South,169,0.0,1.0,77,0.00,,,0.00,Wunderground v.1.13,2013-10-30 22:55:00,
2013-10-30 19:00:00,58.7,51.9,30.14,South,169,0.0,1.0,78,0.00,,,0.00,Wunderground v.1.13,2013-10-30 23:00:00,
2013-10-30 19:05:00,58.0,51.2,30.14,South,169,0.0,1.0,78,0.00,,,0.00,Wunderground v.1.13,2013-10-30 23:05:00,
2013-10-30 19:15:00,57.2,50.7,30.14,South,169,0.0,1.0,79,0.00,,,0.00,Wunderground v.1.13,2013-10-30 23:15:00,
2013-10-30 19:20:00,56.9,50.5,30.14,South,169,0.0,1.0,79,0.00,,,0.00,Wunderground v.1.13,2013-10-30 23:20:00,
2013-10-30 19:25:00,56.7,50.9,30.15,South,169,0.0,1.0,81,0.00,,,0.00,Wunderground v.1.13,2013-10-30 23:25:00,
2013-10-30 19:30:00,56.5,50.7,30.15,South,169,0.0,1.0,81,0.00,,,0.00,Wunderground v.1.13,2013-10-30 23:30:00,
2013-10-30 19:35:00,56.3,50.5,30.15,South,169,0.0,1.0,81,0.00,,,0.00,Wunderground v.1.13,2013-10-30 23:35:00,
2013-10-30 19:45:00,55.9,50.2,30.15,South,169,0.0,1.0,81,0.00,,,0.00,Wunderground v.1.13,2013-10-30 23:45:00,
2013-10-30 19:50:00,55.8,50.4,30.15,South,169,0.0,1.0,82,0.00,,,0.00,Wunderground v.1.13,2013-10-30 23:50:00,
2013-10-30 19:55:00,55.8,50.4,30.15,South,169,0.0,1.0,82,0.00,,,0.00,Wunderground v.1.13,2013-10-30 23:55:00,
2013-10-30 20:00:00,55.8,50.7,30.15,South,169,0.0,1.0,83,0.00,,,0.00,Wunderground v.1.13,2013-10-31 00:00:00,
2013-10-30 20:05:00,55.7,50.6,30.15,South,169,0.0,0.0,83,0.00,,,0.00,Wunderground v.1.13,2013-10-31 00:05:00,
2013-10-30 20:15:00,55.7,50.6,30.15,South,169,0.0,0.0,83,0.00,,,0.00,Wunderground v.1.13,2013-10-31 00:15:00,
2013-10-30 20:25:00,55.7,50.9,30.15,South,169,0.0,0.0,84,0.00,,,0.00,Wunderground v.1.13,2013-10-31 00:25:00,
2013-10-30 20:30:00,55.6,50.8,30.15,South,169,0.0,0.0,84,0.00,,,0.00,Wunderground v.1.13,2013-10-31 00:30:00,
2013-10-30 20:35:00,55.5,51.1,30.14,South,169,0.0,0.0,85,0.00,,,0.00,Wunderground v.1.13,2013-10-31 00:35:00,
2013-10-30 20:40:00,55.4,51.0,30.14,South,169,0.0,0.0,85,0.00,,,0.00,Wunderground v.1.13,2013-10-31 00:40:00,
2013-10-30 20:45:00,55.5,51.1,30.14,South,169,0.0,0.0,85,0.00,,,0.00,Wunderground v.1.13,2013-10-31 00:45:00,
2013-10-30 20:50:00,55.8,51.7,30.14,South,169,0.0,0.0,86,0.00,,,0.00,Wunderground v.1.13,2013-10-31 00:50:00,
2013-10-30 21:00:00,56.1,52.0,30.14,South,169,0.0,0.0,86,0.00,,,0.00,Wunderground v.1.13,2013-10-31 01:00:00,
2013-10-30 21:05:00,56.2,52.1,30.13,South,169,0.0,0.0,86,0.00,,,0.00,Wunderground v.1.13,2013-10-31 01:05:00,
2013-10-30 21:15:00,56.4,52.3,30.13,South,169,0.0,0.0,86,0.00,,,0.00,Wunderground v.1.13,2013-10-31 01:15:00,
2013-10-30 21:25:00,56.4,52.6,30.14,South,169,0.0,0.0,87,0.00,,,0.00,Wunderground v.1.13,2013-10-31 01:25:00,
2013-10-30 21:30:00,56.5,52.7,30.15,South,169,0.0,0.0,87,0.00,,,0.00,Wunderground v.1.13,2013-10-31 01:30:00,
2013-10-30 21:35:00,56.6,52.8,30.15,South,169,0.0,0.0,87,0.00,,,0.00,Wunderground v.1.13,2013-10-31 01:35:00,
2013-10-30 21:40:00,56.4,52.3,30.15,South,169,0.0,0.0,86,0.00,,,0.00,Wunderground v.1.13,2013-10-31 01:40:00,
2013-10-30 21:45:00,56.2,52.1,30.15,South,169,0.0,0.0,86,0.00,,,0.00,Wunderground v.1.13,2013-10-31 01:45:00,
2013-10-30 21:55:00,55.8,51.7,30.14,South,169,0.0,0.0,86,0.00,,,0.00,Wunderground v.1.13,2013-10-31 01:55:00,
2013-10-30 22:00:00,55.5,51.4,30.15,South,169,0.0,0.0,86,0.00,,,0.00,Wunderground v.1.13,2013-10-31 02:00:00,
2013-10-30 22:05:00,55.4,51.6,30.15,South,169,0.0,0.0,87,0.00,,,0.00,Wunderground v.1.13,2013-10-31 02:05:00,
2013-10-30 22:15:00,55.3,51.8,30.14,South,169,0.0,0.0,88,0.00,,,0.00,Wunderground v.1.13,2013-10-31 02:15:00,
2013-10-30 22:20:00,55.4,51.9,30.14,South,169,0.0,0.0,88,0.00,,,0.00,Wunderground v.1.13,2013-10-31 02:20:00,
2013-10-30 22:30:00,55.5,52.3,30.14,South,169,0.0,0.0,89,0.00,,,0.00,Wunderground v.1.13,2013-10-31 02:30:00,
2013-10-30 22:40:00,55.7,52.2,30.14,South,169,0.0,0.0,88,0.00,,,0.00,Wunderground v.1.13,2013-10-31 02:40:00,
2013-10-30 22:45:00,55.9,52.7,30.14,South,169,0.0,0.0,89,0.00,,,0.00,Wunderground v.1.13,2013-10-31 02:45:00,
2013-10-30 22:50:00,55.8,52.3,30.14,South,169,0.0,0.0,88,0.00,,,0.00,Wunderground v.1.13,2013-10-31 02:50:00,
2013-10-30 23:00:00,55.8,52.6,30.13,South,169,0.0,0.0,89,0.00,,,0.00,Wunderground v.1.13,2013-10-31 03:00:00,
2013-10-30 23:05:00,55.8,52.6,30.13,South,169,0.0,1.0,89,0.00,,,0.00,Wunderground v.1.13,2013-10-31 03:05:00,
2013-10-30 23:15:00,55.6,52.1,30.13,South,169,0.0,1.0,88,0.00,,,0.00,Wunderground v.1.13,2013-10-31 03:15:00,
2013-10-30 23:20:00,55.7,52.5,30.12,South,169,0.0,1.0,89,0.00,,,0.00,Wunderground v.1.13,2013-10-31 03:20:00,
2013-10-30 23:30:00,55.5,52.0,30.12,South,169,0.0,1.0,88,0.00,,,0.00,Wunderground v.1.13,2013-10-31 03:30:00,
2013-10-30 23:40:00,55.3,51.8,30.11,South,169,0.0,1.0,88,0.00,,,0.00,Wunderground v.1.13,2013-10-31 03:40:00,
2013-10-30 23:45:00,55.3,52.1,30.12,South,169,0.0,1.0,89,0.00,,,0.00,Wunderground v.1.13,2013-10-31 03:45:00,
2013-10-30 23:55:00,55.3,52.1,30.11,South,169,0.0,1.0,89,0.00,,,0.00,Wunderground v.1.13,2013-10-31 03:55:00,